Regional Weather Roundup
Issued by NWS Mobile, AL

Home | Current Version | Previous Version | Text Only | Print | Product List | Glossary On
Versions: 1 2 3 4 5 6 7 8 9 10 11 12 13 14 15 16 17 18 19 20 21 22 23 24 25 26 27 28 29 30 31 32 33 34 35 36 37 38 39 40 41 42 43 44 45 46 47 48 49 50
000
ASUS44 KMOB 201012
RWRMOB
REGIONAL WEATHER ROUNDUP
NATIONAL WEATHER SERVICE MOBILE AL
400 AM CST MON NOV 20 2017

NOTE: "FAIR" INDICATES FEW OR NO CLOUDS BELOW 12,000 FEET WITH NO
      SIGNIFICANT WEATHER AND/OR OBSTRUCTIONS TO VISIBILITY.

  * THESE STATIONS ARE PART OF THE UNIVERSITY OF SOUTH ALABAMA
    MESONET AND ARE NOT UNDER NWS OR FAA QUALITY CONTROL.

ALZ061>064-201100-
COASTAL ALABAMA

CITY           SKY/WX    TMP DP  RH WIND       PRES   REMARKS
MOBILE REG APT CLEAR     36  31  82 N5        30.21S
BROOKLEY FIELD CLEAR     39  35  86 NW5       30.23R
USA CAMPUS*    NOT AVBL
DOG RIVER*     NOT AVBL


CITY           SKY/WX    TMP DP  RH WIND       PRES   REMARKS
GULF SHORES    CLEAR     38  32  78 N3        30.20S

$$

ALZ051>060-201100-
INTERIOR SOUTHWEST AND SOUTH CENTRAL ALABAMA

CITY           SKY/WX    TMP DP  RH WIND       PRES   REMARKS
GREENVILLE     CLEAR     36  28  73 N6        30.17S
EVERGREEN      CLEAR     32  30  92 CALM      30.20S
ATMORE*          N/A    N/A N/A N/A VRB5        N/A
ANDALUSIA/OPP  CLEAR     37  31  78 CALM      30.18S
ANDALUSIA*       N/A     37  32  81 NE3       30.17S
FLORALA APT    CLEAR     33  30  88 CALM      30.21S
FLORALA*         N/A     36  34  93 W3        30.92S

$$

FLZ001>006-201100-
WESTERN FLORIDA PANHANDLE

CITY           SKY/WX    TMP DP  RH WIND       PRES   REMARKS
PENSACOLA      CLEAR     44  31  60 NE7       30.19R
NAS PENSACOLA  CLEAR     41  32  70 N5        30.19R
MILTON         PTCLDY    37  33  85 N3        30.19S
WHTNG S FIELD  CLEAR     40  29  64 N6        30.19S


CITY           SKY/WX    TMP DP  RH WIND       PRES   REMARKS
JAY*             N/A     37  30  75 NE7       30.19S
DUKE FIELD     CLEAR     34  31  88 CALM      30.18S
CRESTVIEW      CLEAR     35  32  88 NE5       30.19F WCI  31
VALPARAISO     CLEAR     37  32  83 N5        30.17F
DESTIN         CLEAR     47  34  60 NE9G17    30.18F

$$

MSZ076-079-201100-
INTERIOR SOUTHEAST MISSISSIPPI

CITY           SKY/WX    TMP DP  RH WIND       PRES   REMARKS
LEAKESVILLE*     N/A     34  32  93 CALM      30.23S
AGRICOLA*        N/A     36  32  87 CALM      30.21S

$$

MARINE OBSERVATIONS

STATION/POSITION TIME  TEMP    WIND        PRES    WAVE
                       AIR SEA DIR/SP/G            HT/PER
                 (UTC) (F)     (DEG/KT/KT) (MB)    (FT/S)
PASCAGOULA       0942   44      10/  7/ 10 1023.0S
PETIT BOIS ISLND 0942   47      30/ 12/ 15 1023.6R
KATRINA CUT      0930   49      30/ 13     1022.7F
CEDAR POINT      0930   50      60/ 16     1022.4R
E DAUPHIN ISLAND 0900   50      40/ 17/ 19 1022.6R
MIDDLE BAY LIGHT 0930   48      40/ 17     1022.7S
USCG MOBILE BAY  0942   40 66  310/  5/  6 1023.2R
STATE DOCKS      0942   41 65              1023.0R
MEAHER PARK      0930   41     340/  3     1023.0R
WEEKS BAY        0845   40                 1022.0S
FORT MORGAN      0942   49      70/ 19/ 22   N/A
12 S ORANGE BCH  NOT AVBL
PENSACOLA BAY    0942   46 67              1022.5R
64 S DAUPHIN ISL 1000   60 78   40/ 14/ 19 1021.2
67 S FORT MORGAN 0930   59      40/ 16     1021.0S

$$

SELECTED LOCATIONS ACROSS THE REGION

CITY           SKY/WX    TMP DP  RH WIND       PRES   REMARKS
NEW ORLEANS    PTCLDY    52  35  52 NE12      30.20F
GULFPORT       CLEAR     40  33  76 N3        30.21S
PASCAGOULA AP  NOT AVBL
PASCAGOULA*      N/A     39  36  87 N2          N/A
HATTIESBURG    CLEAR     33  33 100 CALM      30.24S
LAUREL         CLEAR     35  30  82 CALM      30.23F
MERIDIAN       CLEAR     32  30  92 CALM      30.22F
JACKSON        CLOUDY    34  29  82 CALM      30.23S
MONTGOMERY     CLEAR     31  27  85 CALM      30.20F
TROY           CLEAR     31  30  96 CALM      30.19R
ASHFORD*         N/A     37  32  81 NE3       30.17S
DOTHAN         CLEAR     36  32  85 CALM      30.21R
PANAMA CITY    CLEAR     39  35  86 N7        30.16F

$$




USA.gov is the U.S. government's official web portal to all federal, state and local government web resources and services.